Wind_Speed
25 24 24 24 23 22 21 20 18 18 18 17 16 15 15 15 14 14 14 14 14 14 13 13 12 11 10 9 9 8 8 8 8 8 8 8 8 8 7 7 7 6
26 25 24 24 24 23 22 21 20 19 19 19 18 16 15 15 15 15 15 14 14 14 14 13 13 12 12 11 10 10 9 9 9 8 8 9 9 9 8 8 8 7
27 26 25 25 25 24 24 23 21 20 20 20 20 18 16 16 16 16 16 15 15 14 14 14 14 13 13 12 11 11 10 10 10 9 9 9 9 9 8 8 8 7
28 27 26 26 26 25 25 24 23 22 21 20 20 20 19 17 16 17 17 16 16 15 15 15 15 14 14 13 13 12 12 11 11 10 10 10 10 10 9 8 8 7
28 27 27 26 26 25 25 24 24 23 23 22 20 20 20 19 18 17 17 17 17 16 16 16 16 15 15 14 14 13 13 12 12 11 11 11 10 10 10 9 9 8
28 28 27 26 26 26 24 25 25 24 23 23 21 20 20 21 20 19 18 18 18 17 17 16 17 16 16 15 15 14 14 13 12 12 12 12 11 11 10 10 10 10
29 29 28 26 26 26 25 24 25 25 24 23 22 21 20 21 21 21 20 19 19 18 18 18 18 17 17 16 16 15 15 14 13 13 13 13 12 11 11 11 10 10
31 29 28 27 26 26 26 25 24 25 24 23 22 22 22 21 22 22 22 21 20 19 19 19 19 18 18 17 17 16 16 15 14 14 14 13 13 12 12 11 11 11
30 29 29 29 28 27 27 27 25 25 25 24 23 22 22 23 22 22 22 22 21 20 20 19 19 19 19 18 18 17 17 16 16 15 16 15 14 14 13 13 12 12
31 30 30 30 29 28 28 28 27 25 25 25 24 23 23 23 23 22 22 22 23 22 21 20 20 20 19 18 18 18 18 17 17 16 16 16 16 16 15 14 14 14
32 32 31 31 30 29 29 29 28 26 26 25 25 25 24 23 23 23 23 23 23 23 23 22 21 21 20 19 19 18 18 18 17 17 17 17 17 16 16 15 15 15
34 33 32 32 32 30 29 29 29 28 27 26 26 26 25 24 24 24 23 24 24 24 23 23 22 21 21 20 19 19 18 18 17 17 17 18 17 17 17 16 15 15
35 34 33 33 32 31 30 29 29 29 28 27 26 26 26 25 25 25 24 24 24 24 23 23 23 22 22 22 21 19 19 18 18 18 18 18 18 18 18 17 17 17
35 34 34 33 32 31 30 29 29 29 28 27 26 25 26 26 26 25 24 24 24 24 23 23 23 23 23 22 22 21 20 20 19 19 18 18 18 18 18 18 18 17
35 33 33 33 32 32 31 30 29 29 28 27 26 26 26 26 26 25 25 24 24 24 24 23 23 24 24 24 23 23 22 21 21 20 20 19 18 18 18 18 18 18
33 33 32 33 33 32 32 31 29 28 28 28 27 26 25 26 26 26 25 25 24 24 24 24 24 24 25 27 26 25 23 22 22 21 21 20 19 18 18 18 18 18
32 32 32 33 33 33 33 32 30 29 29 29 28 27 26 25 26 26 26 25 25 25 24 25 25 25 27 30 30 28 25 23 22 22 21 21 20 19 19 18 18 18
32 32 33 34 34 33 33 33 32 30 29 29 28 27 26 26 25 26 26 25 25 25 25 25 25 25 28 31 32 32 29 25 22 22 21 21 20 20 19 19 19 19
33 33 32 33 33 33 32 32 32 31 30 29 29 28 27 26 26 26 26 25 25 24 25 25 24 25 28 30 32 33 33 29 23 20 21 21 20 20 20 19 19 18
33 33 32 32 32 32 31 31 32 31 30 29 28 28 27 27 26 26 25 26 25 24 24 23 24 25 27 30 31 32 33 33 28 21 19 20 20 19 19 19 19 19
32 32 32 32 32 31 31 31 31 31 30 29 28 28 28 27 26 26 25 25 26 25 23 22 23 25 26 28 31 31 31 33 31 24 19 18 19 19 19 19 19 19
33 32 31 31 32 31 31 30 31 30 29 28 27 26 26 26 25 25 25 25 25 25 25 24 23 24 25 26 28 29 28 30 31 27 22 20 19 19 20 20 19 19
33 32 32 31 31 31 31 30 30 29 28 28 26 25 25 25 25 25 25 25 25 25 26 25 25 26 27 26 26 27 26 28 29 26 22 21 20 19 20 20 20 21
33 33 32 31 31 32 31 30 29 28 28 27 27 26 25 25 24 24 24 25 26 26 26 26 25 28 29 29 28 28 27 28 28 24 21 21 20 19 19 19 21 23
32 32 32 31 31 31 30 29 28 27 26 26 26 25 24 24 23 23 23 24 25 26 27 27 25 27 29 31 31 31 31 30 28 23 21 20 20 19 19 19 20 22
32 32 32 31 30 30 29 28 27 26 25 25 25 24 23 23 23 23 23 23 23 24 26 27 26 25 28 31 32 33 33 33 29 23 21 21 20 19 18 18 19 20
Wind_Direction
194 194 196 198 200 203 204 203 204 205 207 211 213 214 213 211 211 211 210 209 210 211 213 211 211 213 216 218 219 221 227 229 231 232 230 230 234 237 239 239 241 243
193 195 196 198 200 202 204 206 207 208 208 211 214 215 212 209 208 210 210 209 210 213 213 212 211 212 214 216 219 221 224 228 231 232 231 232 235 237 238 240 238 237
192 195 196 198 200 201 203 206 207 209 210 211 213 214 213 210 207 208 210 210 211 214 213 213 212 213 214 215 217 221 224 226 230 231 232 232 234 239 239 240 242 235
192 195 197 200 201 202 203 204 206 208 211 212 212 212 213 211 208 207 208 209 210 212 212 213 213 213 214 215 216 220 224 227 228 229 232 232 232 237 240 239 242 239
192 195 198 201 201 201 201 203 206 207 210 212 211 210 210 208 207 207 207 207 208 210 211 211 212 212 212 211 214 219 222 226 225 223 229 233 230 233 237 236 236 239
192 194 197 199 199 199 200 203 206 207 209 211 211 209 207 205 207 208 207 207 207 210 212 211 210 210 210 208 210 215 220 225 224 220 222 230 232 232 233 233 232 235
191 193 196 198 197 198 200 202 203 206 208 210 209 208 206 205 206 208 208 208 209 211 212 211 210 209 209 208 208 212 217 223 225 220 220 226 230 232 233 232 232 232
191 192 193 196 196 196 199 201 202 204 206 208 209 208 207 207 206 207 208 208 209 211 211 210 210 209 209 208 208 210 214 218 222 221 220 223 226 228 231 231 231 232
191 191 193 195 196 197 199 200 201 202 203 206 208 208 207 207 207 207 207 207 208 209 209 209 208 208 209 209 209 210 213 217 219 218 218 221 224 227 228 229 230 231
190 192 194 195 197 198 199 200 201 201 202 204 207 208 207 206 207 208 206 205 206 207 207 207 206 206 207 210 211 211 213 217 218 218 218 220 223 226 229 230 230 230
191 193 194 196 197 199 200 201 201 201 201 202 205 208 208 206 205 207 206 204 205 206 205 205 205 205 206 209 212 212 213 216 218 219 219 220 222 225 227 230 231 232
192 194 195 196 198 200 201 201 202 203 202 202 204 207 209 207 204 204 206 205 205 205 205 204 205 205 206 208 211 213 214 216 218 218 219 221 221 223 225 228 231 234
193 194 196 197 198 201 201 201 203 204 204 203 204 205 207 207 205 203 204 205 205 205 205 204 204 205 206 208 211 213 213 215 218 219 220 221 222 224 226 227 230 233
194 195 196 197 198 199 201 201 202 204 205 204 203 204 207 208 206 204 203 205 205 205 205 204 204 206 207 207 208 211 213 215 218 220 221 222 223 224 227 229 231 233
193 194 195 196 196 197 199 201 202 202 204 204 203 205 208 209 209 206 204 204 205 205 205 205 205 206 207 206 206 207 211 215 218 220 222 223 224 225 227 228 232 234
191 192 193 194 194 195 196 199 200 201 202 203 203 205 207 208 210 210 207 206 205 205 205 205 207 208 208 208 207 206 208 213 217 220 222 223 223 225 227 228 231 234
190 190 190 192 192 193 194 196 198 200 201 202 202 203 205 206 208 210 211 209 207 206 206 207 209 211 210 210 210 209 207 209 215 219 221 222 222 223 225 227 230 234
188 188 189 190 190 191 191 193 196 198 200 200 201 202 202 204 206 209 212 213 210 208 209 211 212 213 212 212 213 214 211 209 213 218 219 221 221 221 223 225 229 232
186 186 187 187 188 188 188 189 192 197 198 198 199 200 199 202 205 207 210 213 213 212 212 213 216 215 214 215 216 218 216 213 213 218 221 222 221 221 222 223 226 230
185 185 185 185 185 185 185 187 191 194 197 197 197 198 199 201 205 207 208 211 213 215 215 216 219 219 217 217 218 221 221 219 217 219 225 226 224 222 221 222 224 226
185 184 184 183 183 183 184 187 190 193 195 196 196 197 199 200 204 206 207 208 211 214 216 217 221 222 220 218 220 223 224 223 221 223 229 231 228 224 223 223 223 225
185 183 183 182 182 184 185 187 189 191 194 196 197 199 200 200 202 205 206 207 209 211 215 218 221 224 223 221 221 223 223 223 223 225 230 234 232 228 225 224 224 224
185 183 183 183 182 184 186 188 189 190 192 195 197 199 200 201 202 205 206 207 208 209 212 216 220 224 225 223 221 219 218 220 222 224 229 233 233 231 228 226 226 226
185 184 183 184 184 186 188 188 188 189 191 193 197 199 201 202 203 205 207 208 210 210 210 213 219 223 224 223 221 219 217 218 219 220 225 230 233 232 230 229 230 229
185 186 185 186 186 187 188 188 187 188 190 192 197 201 203 204 204 206 209 210 211 213 212 213 219 223 224 222 221 220 219 218 216 216 221 226 229 231 230 229 231 233
186 187 187 188 188 187 188 187 186 187 189 192 198 203 205 206 207 208 211 211 212 214 214 214 217 222 224 222 220 220 221 218 213 212 217 221 225 228 228 228 230 232
Height
814 817 820 823 825 828 830 832 834 835 837 838 840 841 842 844 845 846 847 848 850 851 852 853 853 855 856 856 857 858 859 859 860 860 860 861 862 862 862 862 862 862
811 814 817 819 822 825 827 829 831 833 834 836 837 839 840 842 843 844 846 847 848 849 850 851 852 853 854 855 856 857 858 858 859 859 860 860 861 861 861 861 861 862
807 810 813 816 818 821 824 826 828 830 832 833 835 837 838 840 841 842 844 845 846 847 849 850 851 852 853 854 855 856 856 857 858 858 859 859 860 860 860 861 860 861
804 807 809 812 815 817 820 823 825 827 829 830 832 834 835 837 839 840 842 843 844 846 847 848 849 850 851 852 854 854 855 856 856 857 858 858 859 859 859 860 860 860
800 803 806 809 811 814 817 819 821 823 825 827 829 831 833 835 836 838 839 841 842 843 844 846 847 848 850 851 852 853 853 854 855 856 857 857 857 858 858 859 859 860
797 800 803 806 808 811 813 815 818 820 822 824 826 828 830 832 833 835 837 838 839 841 842 843 845 846 847 848 850 851 851 852 853 854 855 855 856 857 857 858 858 859
793 796 799 802 805 808 810 812 815 817 819 821 823 825 827 829 830 832 834 835 836 838 839 841 842 843 845 846 847 848 849 850 851 852 853 854 855 855 855 856 857 857
788 792 795 799 801 804 806 809 811 813 816 818 820 822 824 825 827 829 831 832 834 835 836 838 839 840 842 843 845 846 847 848 849 850 851 852 853 853 854 855 856 856
785 788 792 795 797 800 802 805 808 810 813 815 816 819 821 822 824 826 828 829 831 832 834 835 837 838 839 841 842 843 844 845 847 848 849 850 851 851 852 853 854 855
781 784 788 791 793 796 798 801 804 806 809 811 813 815 817 819 821 823 825 826 828 829 831 832 834 835 837 838 839 841 842 843 844 845 846 847 848 849 850 851 852 853
776 780 783 786 789 791 794 797 800 802 805 807 809 811 813 816 818 820 822 823 824 826 828 829 831 832 834 835 837 838 839 840 842 843 844 845 846 847 848 849 850 850
771 775 778 781 784 787 790 793 795 798 801 803 805 808 810 812 814 816 818 819 821 823 824 826 828 829 831 832 834 835 837 838 839 840 842 843 844 844 845 846 847 848
766 769 773 776 780 783 785 788 791 794 796 799 802 804 806 808 810 812 814 816 818 820 821 823 824 826 828 829 831 833 834 835 837 838 839 840 841 842 843 844 844 846
760 765 768 772 776 779 782 785 787 790 793 795 798 800 802 804 806 808 811 813 815 816 818 820 821 823 824 826 828 830 831 833 834 835 836 837 838 839 840 841 842 842
757 761 764 768 772 775 778 781 784 787 789 792 795 797 799 801 803 805 807 809 811 813 815 817 818 819 820 822 824 826 828 829 830 832 833 834 835 836 837 838 839 839
754 757 761 764 768 771 774 778 780 783 786 788 791 793 796 798 800 802 804 805 808 810 811 813 814 815 816 818 820 822 824 826 827 828 829 831 832 833 834 835 836 836
750 754 757 760 764 767 770 774 777 780 782 785 787 790 793 795 797 799 800 802 804 806 807 809 809 811 812 813 816 818 820 822 824 825 826 827 829 830 831 832 833 834
746 750 753 757 760 763 767 770 773 776 778 781 784 786 789 792 793 795 797 798 800 802 803 805 806 807 808 810 812 814 817 819 820 822 823 824 825 826 827 829 830 831
742 746 749 753 756 760 763 766 770 772 774 777 780 783 786 788 790 792 794 795 796 798 799 801 802 804 805 806 808 810 813 815 817 819 820 820 822 823 824 825 826 827
739 742 746 749 752 756 760 763 766 768 771 773 776 779 782 784 786 788 790 792 793 795 796 798 799 800 801 803 806 808 810 812 814 816 817 817 818 819 821 822 823 824
736 739 742 746 749 753 756 759 762 765 768 770 773 775 778 780 783 785 787 789 790 792 794 795 796 797 798 800 802 805 807 810 812 814 814 815 816 816 817 819 820 821
732 736 739 742 746 749 752 755 758 761 764 767 770 772 774 777 779 781 783 785 787 789 791 792 793 794 795 797 799 802 805 807 810 811 812 812 813 813 814 815 816 818
728 732 735 739 742 745 748 751 754 758 761 764 767 769 771 773 775 777 779 781 783 785 787 788 790 791 792 794 796 799 802 805 806 808 809 809 810 811 811 812 813 814
725 728 731 735 737 740 744 747 751 754 757 761 763 765 767 769 771 773 775 777 779 780 782 784 786 787 789 791 793 795 798 801 803 805 806 806 807 808 809 809 810 810
722 725 728 731 733 736 740 743 747 750 754 757 760 762 764 766 768 770 772 773 775 777 778 780 782 783 785 787 789 791 794 797 799 801 802 803 804 805 805 806 807 807
718 721 724 727 730 734 737 741 744 747 751 754 757 759 761 763 765 767 768 769 771 773 775 776 778 779 780 782 784 787 789 792 795 797 798 800 800 801 802 803 803 804